Time,TemperatureF,DewpointF,PressureIn,WindDirection,WindDirectionDegrees,WindSpeedMPH,WindSpeedGustMPH,Humidity,HourlyPrecipIn,Conditions,Clouds,dailyrainin,SoftwareType,DateUTC
2013-04-22 00:15:00,49.1,44.0,30.18,WNW,301,0.0,0.0,83,0.00,,,0.00,weatherlink.com 1.10,2013-04-22 05:15:00,
2013-04-22 00:30:00,49.2,44.0,30.18,WNW,301,0.0,0.0,82,0.00,,,0.00,weatherlink.com 1.10,2013-04-22 05:30:00,
2013-04-22 00:45:00,49.2,44.0,30.18,West,274,0.0,0.0,82,0.00,,,0.00,weatherlink.com 1.10,2013-04-22 05:45:00,
2013-04-22 01:00:00,49.2,44.0,30.18,SSW,206,0.0,1.0,81,0.00,,,0.00,weatherlink.com 1.10,2013-04-22 06:00:00,
2013-04-22 01:15:00,49.3,44.0,30.18,SSW,206,0.0,0.0,82,0.00,,,0.00,weatherlink.com 1.10,2013-04-22 06:15:00,
2013-04-22 01:30:00,49.2,44.0,30.17,SSW,206,0.0,0.0,82,0.00,,,0.00,weatherlink.com 1.10,2013-04-22 06:30:00,
2013-04-22 01:45:00,49.1,43.0,30.18,SSW,206,0.0,0.0,80,0.00,,,0.00,weatherlink.com 1.10,2013-04-22 06:45:00,
2013-04-22 02:00:00,48.9,43.0,30.17,SSW,206,0.0,0.0,79,0.00,,,0.00,weatherlink.com 1.10,2013-04-22 07:00:00,
2013-04-22 02:15:00,48.8,43.0,30.17,SSW,206,0.0,0.0,80,0.00,,,0.00,weatherlink.com 1.10,2013-04-22 07:15:00,
2013-04-22 02:30:00,48.7,43.0,30.16,SSW,213,0.0,0.0,82,0.00,,,0.00,weatherlink.com 1.10,2013-04-22 07:30:00,
2013-04-22 02:45:00,48.6,43.0,30.16,ESE,122,0.0,1.0,82,0.00,,,0.00,weatherlink.com 1.10,2013-04-22 07:45:00,
2013-04-22 03:00:00,48.6,43.0,30.17,North,5,0.0,1.0,81,0.00,,,0.00,weatherlink.com 1.10,2013-04-22 08:00:00,
2013-04-22 03:15:00,48.5,43.0,30.17,NNW,329,0.0,0.0,82,0.00,,,0.00,weatherlink.com 1.10,2013-04-22 08:15:00,
2013-04-22 03:30:00,48.4,44.0,30.17,NNW,331,0.0,0.0,83,0.00,,,0.00,weatherlink.com 1.10,2013-04-22 08:30:00,
2013-04-22 03:45:00,48.3,43.0,30.16,NNW,331,0.0,0.0,83,0.00,,,0.00,weatherlink.com 1.10,2013-04-22 08:45:00,
2013-04-22 04:00:00,48.4,44.0,30.17,North,11,0.0,1.0,84,0.00,,,0.00,weatherlink.com 1.10,2013-04-22 09:00:00,
2013-04-22 04:15:00,48.6,44.0,30.17,NW,323,0.0,0.0,84,0.00,,,0.00,weatherlink.com 1.10,2013-04-22 09:15:00,
2013-04-22 04:30:00,49.3,44.0,30.17,North,355,0.0,3.0,82,0.00,,,0.00,weatherlink.com 1.10,2013-04-22 09:30:00,
2013-04-22 05:00:00,49.8,44.0,30.18,WNW,300,0.0,1.0,81,0.00,,,0.00,weatherlink.com 1.10,2013-04-22 10:00:00,
2013-04-22 05:15:00,49.7,44.0,30.18,NE,42,0.0,2.0,80,0.00,,,0.00,weatherlink.com 1.10,2013-04-22 10:15:00,
2013-04-22 05:30:00,49.9,44.0,30.18,SW,229,0.0,4.0,80,0.00,,,0.00,weatherlink.com 1.10,2013-04-22 10:30:00,
2013-04-22 05:45:00,49.9,44.0,30.19,North,5,0.0,1.0,79,0.00,,,0.00,weatherlink.com 1.10,2013-04-22 10:45:00,
2013-04-22 06:00:00,50.3,44.0,30.19,South,171,0.0,2.0,79,0.00,,,0.00,weatherlink.com 1.10,2013-04-22 11:00:00,
2013-04-22 06:15:00,50.4,44.0,30.19,ENE,57,0.0,3.0,78,0.00,,,0.00,weatherlink.com 1.10,2013-04-22 11:15:00,
2013-04-22 06:30:00,50.6,43.0,30.20,ENE,67,0.0,3.0,76,0.00,,,0.00,weatherlink.com 1.10,2013-04-22 11:30:00,
2013-04-22 06:45:00,50.7,43.0,30.20,East,94,0.0,5.0,76,0.00,,,0.00,weatherlink.com 1.10,2013-04-22 11:45:00,
2013-04-22 07:00:00,50.7,44.0,30.21,WSW,249,1.0,3.0,77,0.00,,,0.00,weatherlink.com 1.10,2013-04-22 12:00:00,
2013-04-22 07:15:00,51.0,44.0,30.21,South,184,0.0,1.0,76,0.00,,,0.00,weatherlink.com 1.10,2013-04-22 12:15:00,
2013-04-22 07:30:00,51.5,45.0,30.20,East,95,0.0,2.0,77,0.00,,,0.00,weatherlink.com 1.10,2013-04-22 12:30:00,
2013-04-22 07:45:00,52.0,45.0,30.20,South,173,0.0,8.0,76,0.00,,,0.00,weatherlink.com 1.10,2013-04-22 12:45:00,
2013-04-22 08:00:00,52.5,45.0,30.21,NNW,336,0.0,6.0,75,0.00,,,0.00,weatherlink.com 1.10,2013-04-22 13:00:00,
2013-04-22 08:15:00,53.1,45.0,30.21,SSE,165,0.0,9.0,74,0.00,,,0.00,weatherlink.com 1.10,2013-04-22 13:15:00,
2013-04-22 08:30:00,53.6,44.0,30.21,West,263,0.0,7.0,71,0.00,,,0.00,weatherlink.com 1.10,2013-04-22 13:30:00,
2013-04-22 08:45:00,54.3,45.0,30.21,South,170,0.0,3.0,71,0.00,,,0.00,weatherlink.com 1.10,2013-04-22 13:45:00,
2013-04-22 09:00:00,55.0,45.0,30.21,South,181,0.0,3.0,70,0.00,,,0.00,weatherlink.com 1.10,2013-04-22 14:00:00,
2013-04-22 09:15:00,55.7,46.0,30.20,NW,306,0.0,8.0,69,0.00,,,0.00,weatherlink.com 1.10,2013-04-22 14:15:00,
2013-04-22 09:30:00,56.6,46.0,30.20,SSE,158,1.0,5.0,67,0.00,,,0.00,weatherlink.com 1.10,2013-04-22 14:30:00,
2013-04-22 09:45:00,57.6,46.0,30.21,South,188,0.0,4.0,65,0.00,,,0.00,weatherlink.com 1.10,2013-04-22 14:45:00,
2013-04-22 10:01:00,58.4,46.0,30.21,West,260,0.0,3.0,63,0.00,,,0.00,weatherlink.com 1.10,2013-04-22 15:01:00,
2013-04-22 10:16:00,59.3,46.0,30.21,NW,320,0.0,4.0,62,0.00,,,0.00,weatherlink.com 1.10,2013-04-22 15:16:00,
2013-04-22 10:31:00,59.8,47.0,30.20,WNW,300,0.0,8.0,63,0.00,,,0.00,weatherlink.com 1.10,2013-04-22 15:31:00,
2013-04-22 10:46:00,60.7,47.0,30.20,NNW,329,0.0,5.0,60,0.00,,,0.00,weatherlink.com 1.10,2013-04-22 15:46:00,
2013-04-22 11:01:00,61.6,46.0,30.20,ENE,69,0.0,6.0,57,0.00,,,0.00,weatherlink.com 1.10,2013-04-22 16:01:00,
2013-04-22 11:16:00,62.2,47.0,30.19,SSW,208,0.0,4.0,57,0.00,,,0.00,weatherlink.com 1.10,2013-04-22 16:16:00,
2013-04-22 11:31:00,62.9,46.0,30.19,NNW,334,0.0,8.0,55,0.00,,,0.00,weatherlink.com 1.10,2013-04-22 16:31:00,
2013-04-22 11:46:00,63.9,48.0,30.18,SW,235,0.0,3.0,56,0.00,,,0.00,weatherlink.com 1.10,2013-04-22 16:46:00,
2013-04-22 12:01:00,64.7,48.0,30.18,NNE,30,0.0,6.0,55,0.00,,,0.00,weatherlink.com 1.10,2013-04-22 17:01:00,
2013-04-22 12:16:00,65.4,48.0,30.17,SSW,203,0.0,3.0,53,0.00,,,0.00,weatherlink.com 1.10,2013-04-22 17:16:00,
2013-04-22 12:31:00,66.5,48.0,30.16,NNE,28,4.0,4.0,51,0.00,,,0.00,weatherlink.com 1.10,2013-04-22 17:31:00,
2013-04-22 12:46:00,67.3,48.0,30.15,NW,322,1.0,10.0,50,0.00,,,0.00,weatherlink.com 1.10,2013-04-22 17:46:00,
2013-04-22 13:01:00,68.4,48.0,30.14,South,190,0.0,4.0,49,0.00,,,0.00,weatherlink.com 1.10,2013-04-22 18:01:00,
2013-04-22 13:16:00,68.8,47.0,30.14,WSW,241,4.0,4.0,46,0.00,,,0.00,weatherlink.com 1.10,2013-04-22 18:16:00,
2013-04-22 13:31:00,68.4,48.0,30.13,ESE,116,0.0,2.0,49,0.00,,,0.00,weatherlink.com 1.10,2013-04-22 18:31:00,
2013-04-22 13:46:00,68.6,48.0,30.12,WSW,238,0.0,3.0,48,0.00,,,0.00,weatherlink.com 1.10,2013-04-22 18:46:00,
2013-04-22 14:01:00,69.0,49.0,30.11,NE,34,0.0,5.0,49,0.00,,,0.00,weatherlink.com 1.10,2013-04-22 19:01:00,
2013-04-22 14:16:00,69.8,50.0,30.10,NNE,21,1.0,4.0,49,0.00,,,0.00,weatherlink.com 1.10,2013-04-22 19:16:00,
2013-04-22 14:31:00,70.0,49.0,30.09,NNW,339,0.0,7.0,48,0.00,,,0.00,weatherlink.com 1.10,2013-04-22 19:31:00,
2013-04-22 14:46:00,70.3,48.0,30.08,South,189,0.0,6.0,46,0.00,,,0.00,weatherlink.com 1.10,2013-04-22 19:46:00,
2013-04-22 15:01:00,70.6,49.0,30.08,ESE,120,0.0,6.0,47,0.00,,,0.00,weatherlink.com 1.10,2013-04-22 20:01:00,
2013-04-22 15:16:00,70.8,50.0,30.06,NNE,21,0.0,2.0,48,0.00,,,0.00,weatherlink.com 1.10,2013-04-22 20:16:00,
2013-04-22 15:31:00,71.4,51.0,30.06,NE,46,2.0,4.0,49,0.00,,,0.00,weatherlink.com 1.10,2013-04-22 20:31:00,
2013-04-22 15:47:00,70.6,50.0,30.06,SW,223,0.0,4.0,48,0.00,,,0.00,weatherlink.com 1.10,2013-04-22 20:47:00,
2013-04-22 16:02:00,70.6,50.0,30.05,SSW,207,0.0,2.0,48,0.00,,,0.00,weatherlink.com 1.10,2013-04-22 21:02:00,
2013-04-22 16:17:00,70.4,51.0,30.05,North,350,0.0,2.0,51,0.00,,,0.00,weatherlink.com 1.10,2013-04-22 21:17:00,
2013-04-22 16:32:00,70.8,51.0,30.05,North,360,0.0,7.0,49,0.00,,,0.00,weatherlink.com 1.10,2013-04-22 21:32:00,
2013-04-22 16:47:00,71.0,49.0,30.05,South,169,0.0,5.0,46,0.00,,,0.00,weatherlink.com 1.10,2013-04-22 21:47:00,
2013-04-22 17:02:00,70.8,51.0,30.05,SSW,200,0.0,3.0,49,0.00,,,0.00,weatherlink.com 1.10,2013-04-22 22:02:00,
2013-04-22 17:17:00,70.7,50.0,30.04,East,100,0.0,3.0,48,0.00,,,0.00,weatherlink.com 1.10,2013-04-22 22:17:00,
2013-04-22 17:32:00,69.7,52.0,30.04,ESE,103,0.0,0.0,54,0.00,,,0.00,weatherlink.com 1.10,2013-04-22 22:32:00,
2013-04-22 17:47:00,68.6,53.0,30.05,ESE,103,0.0,0.0,58,0.00,,,0.00,weatherlink.com 1.10,2013-04-22 22:47:00,
2013-04-22 18:02:00,68.5,51.0,30.04,SSW,194,0.0,3.0,54,0.00,,,0.00,weatherlink.com 1.10,2013-04-22 23:02:00,
2013-04-22 18:17:00,68.3,51.0,30.04,SSW,194,0.0,0.0,54,0.00,,,0.00,weatherlink.com 1.10,2013-04-22 23:17:00,
2013-04-22 18:32:00,67.9,52.0,30.04,SSW,193,0.0,0.0,58,0.00,,,0.00,weatherlink.com 1.10,2013-04-22 23:32:00,
2013-04-22 18:47:00,67.0,54.0,30.04,SSW,193,0.0,0.0,64,0.00,,,0.00,weatherlink.com 1.10,2013-04-22 23:47:00,
2013-04-22 19:02:00,65.7,53.0,30.04,SSW,193,0.0,0.0,64,0.00,,,0.00,weatherlink.com 1.10,2013-04-23 00:02:00,
2013-04-22 19:17:00,64.4,54.0,30.04,SSW,193,0.0,0.0,68,0.00,,,0.00,weatherlink.com 1.10,2013-04-23 00:17:00,
2013-04-22 19:32:00,62.8,53.0,30.04,SSW,193,0.0,0.0,71,0.00,,,0.00,weatherlink.com 1.10,2013-04-23 00:32:00,
2013-04-22 19:47:00,61.2,52.0,30.05,SSW,193,0.0,0.0,73,0.00,,,0.00,weatherlink.com 1.10,2013-04-23 00:47:00,
2013-04-22 20:02:00,59.8,52.0,30.05,SSW,193,0.0,0.0,75,0.00,,,0.00,weatherlink.com 1.10,2013-04-23 01:02:00,
2013-04-22 20:32:00,57.6,51.0,30.06,SSW,193,0.0,0.0,78,0.00,,,0.00,weatherlink.com 1.10,2013-04-23 01:32:00,
2013-04-22 20:47:00,56.7,51.0,30.06,SSW,193,0.0,0.0,80,0.00,,,0.00,weatherlink.com 1.10,2013-04-23 01:47:00,
2013-04-22 21:02:00,55.9,50.0,30.07,SSW,193,0.0,0.0,81,0.00,,,0.00,weatherlink.com 1.10,2013-04-23 02:02:00,
2013-04-22 21:32:00,54.6,50.0,30.07,SSW,193,0.0,0.0,84,0.00,,,0.00,weatherlink.com 1.10,2013-04-23 02:32:00,
2013-04-22 22:02:00,53.5,50.0,30.08,SSW,193,0.0,0.0,86,0.00,,,0.00,weatherlink.com 1.10,2013-04-23 03:02:00,
2013-04-22 22:17:00,53.2,50.0,30.08,SSW,193,0.0,0.0,87,0.00,,,0.00,weatherlink.com 1.10,2013-04-23 03:17:00,
2013-04-22 22:32:00,52.7,49.0,30.07,SSW,193,0.0,0.0,87,0.00,,,0.00,weatherlink.com 1.10,2013-04-23 03:32:00,
2013-04-22 22:47:00,52.3,49.0,30.07,SSW,193,0.0,0.0,88,0.00,,,0.00,weatherlink.com 1.10,2013-04-23 03:47:00,
2013-04-22 23:02:00,52.0,49.0,30.07,SSW,193,0.0,0.0,89,0.00,,,0.00,weatherlink.com 1.10,2013-04-23 04:02:00,
2013-04-22 23:17:00,51.7,49.0,30.07,SSW,193,0.0,0.0,90,0.00,,,0.00,weatherlink.com 1.10,2013-04-23 04:17:00,
2013-04-22 23:32:00,51.5,49.0,30.07,SSW,193,0.0,0.0,90,0.00,,,0.00,weatherlink.com 1.10,2013-04-23 04:32:00,
2013-04-22 23:47:00,51.4,49.0,30.07,SSW,193,0.0,0.0,91,0.00,,,0.00,weatherlink.com 1.10,2013-04-23 04:47:00,